Location: Groß Eilstorf
(52.8200°N, 9.4552°E)
Time: 11:13:06
(UTC+00:00)

Cosmos 909 Rocket - Pass Details

Date: 15 May 2026
Orbit: 989 x 2090 km, 65.9° (Epoch: 8 June)

Event Time Altitude Azimuth Distance (km) Brightness Sun altitude
Rises 20:13:31 0° 214° (SW) 3,749 6.9 -7.8°
Reaches altitude 10° 20:16:05 10° 214° (SSW) 2,762 6.2 -8.0°
Maximum altitude 20:22:21 80° 128° (SE) 1,018 4.0 -8.7°
Drops below altitude 10° 20:28:58 10° 43° (NE) 2,919 6.6 -9.3°
Sets 20:31:46 0° 42° (NE) 3,977 7.3 -9.6°
